Farmington, MO

7:54 AM CST on December 08, 2019 (GMT -0600)
Farmington Regional

Weather History for KFAM - October, 2019

Change the Weather History Date:

Friday, October 4, 2019

  Actual Average Record
Temperature  
Mean Temperature 61 °F -  
Max Temperature 72 °F 70 °F 87 °F (2006)
Min Temperature 50 °F 47 °F 35 °F (2010)
Degree Days  
Heating Degree Days 4    
Growing Degree Days 11 (Base 50)    
Moisture  
Dew Point 48 °F    
Average Humidity 66    
Maximum Humidity 93    
Minimum Humidity 43    
Precipitation  
Precipitation 0.00 in - - ()
Sea Level Pressure  
Sea Level Pressure 30.29 in    
Wind  
Wind Speed 7 mph (NNE)    
Max Wind Speed 12 mph    
Max Gust Speed 16 mph    
Visibility 10 miles    
Events      
Averages and records for this station are not official NWS values.
T = Trace of Precipitation, MM = Missing Value Source: NWS Daily Summary

Daily Weather History Graph

Daily Weather History Graph

Search for Another Location

Airport or City:

Astronomy

Oct. 04, 2019 Rise Set
Actual Time 6:59 AM CDT 6:40 PM CDT
Civil Twilight 6:33 AM CDT 7:06 PM CDT
Nautical Twilight 6:03 AM CDT 7:37 PM CDT
Astronomical Twilight 5:32 AM CDT 8:07 PM CDT
Moon 1:25 PM CDT (10/4) 11:15 PM CDT (10/4)
Length of Visible Light 12h 33m
Length of Day
11h 40m
Waxing Crescent, 40% of the Moon is Illuminated
Oct 4
Waxing Crescent
Oct 5
First Quarter
Oct 13
Full
Oct 21
Last Quarter
Oct 27
New

Hourly Weather History & Observations

Time (CDT) Temp. Dew Point Humidity Pressure Visibility Wind Dir Wind Speed Gust Speed Precip Events Conditions
12:56 AM 55.0 °F 51.1 °F 86% 30.29 in 10.0 mi North 4.6 mph - N/A   Clear
2:56 AM 52.0 °F 50.0 °F 93% 30.30 in 10.0 mi NNW 4.6 mph - N/A   Clear
3:56 AM 52.0 °F 48.9 °F 89% 30.30 in 10.0 mi North 5.8 mph - N/A   Clear
4:56 AM 51.1 °F 48.0 °F 89% 30.31 in 10.0 mi North 6.9 mph - N/A   Clear
5:56 AM 51.1 °F 48.0 °F 89% 30.32 in 10.0 mi NNE 6.9 mph - N/A   Clear
6:56 AM 50.0 °F 46.9 °F 89% 30.34 in 10.0 mi NNE 8.1 mph - N/A   Clear
7:56 AM 52.0 °F 46.9 °F 83% 30.35 in 10.0 mi NNE 8.1 mph - N/A   Clear
8:56 AM 55.9 °F 46.9 °F 72% 30.36 in 10.0 mi NNE 11.5 mph 16.1 mph N/A   Partly Cloudy
9:56 AM 59.0 °F 48.0 °F 67% 30.35 in 10.0 mi North 11.5 mph - N/A   Clear
10:56 AM 62.1 °F 48.9 °F 62% 30.35 in 10.0 mi NNE 10.4 mph - N/A   Clear
11:56 AM 64.9 °F 48.0 °F 54% 30.33 in 10.0 mi North 11.5 mph - N/A   Clear
12:56 PM 68.0 °F 48.0 °F 49% 30.31 in 10.0 mi ENE 10.4 mph - N/A   Clear
1:56 PM 69.1 °F 46.9 °F 45% 30.28 in 10.0 mi North 9.2 mph - N/A   Clear
2:56 PM 71.1 °F 48.0 °F 44% 30.27 in 10.0 mi NE 10.4 mph 16.1 mph N/A   Clear
3:56 PM 72.0 °F 48.9 °F 44% 30.25 in 10.0 mi NE 11.5 mph - N/A   Clear
4:56 PM 72.0 °F 48.0 °F 43% 30.25 in 10.0 mi NE 11.5 mph - N/A   Clear
5:56 PM 69.1 °F 46.9 °F 45% 30.25 in 10.0 mi NE 9.2 mph - N/A   Clear
6:56 PM 64.9 °F 46.9 °F 52% 30.25 in 10.0 mi NNE 4.6 mph - N/A   Clear
7:56 PM 64.0 °F 46.9 °F 54% 30.25 in 10.0 mi NNE 5.8 mph - N/A   Clear
8:56 PM 61.0 °F 46.9 °F 60% 30.25 in 10.0 mi NNE 5.8 mph - N/A   Clear
9:56 PM 59.0 °F 46.9 °F 64% 30.24 in 10.0 mi NE 5.8 mph - N/A   Clear
10:56 PM 55.9 °F 48.0 °F 75% 30.24 in 10.0 mi Calm Calm - N/A   Clear
11:56 PM 55.0 °F 48.0 °F 77% 30.22 in 10.0 mi Calm Calm - N/A   Clear